Location: Llanfihangel-Ystrad
(52.1833°N, 4.1667°W)
Time: 17:21:43
(UTC+00:00)

NOSS 2-1 (E) - Pass Details

Date: 17 February 2020
Orbit: 450 x 1753 km, 63.3° (Epoch: 03 April)

Event Time Altitude Azimuth Distance (km) Brightness Sun altitude
Exits shadow 06:49:27 - 271° (W) 1,777 5.3 -6.7°
Reaches altitude 10° 06:49:48 10° 274° (W) 1,658 5.1 -6.7°
Maximum altitude 06:52:59 29° 337° (NNW) 998 4.4 -6.2°
Drops below altitude 10° 06:56:48 10° 38° (NE) 1,997 6.5 -5.6°
Sets 06:59:39 0° 49° (NE) 3,105 7.7 -5.2°
